Time,TemperatureF,DewpointF,PressureIn,WindDirection,WindDirectionDegrees,WindSpeedMPH,WindSpeedGustMPH,Humidity,HourlyPrecipIn,Conditions,Clouds,dailyrainin,SoftwareType,DateUTC
2013-03-02 00:01:00,34.0,29.0,30.13,NW,323,2.0,8.0,81,0.00,,,0.00,,2013-03-02 06:01:00,
2013-03-02 00:11:00,34.0,29.0,30.13,NW,323,2.0,8.0,81,0.00,,,0.00,,2013-03-02 06:11:00,
2013-03-02 00:21:00,33.0,28.0,30.13,WNW,288,4.0,8.0,82,0.00,,,0.00,,2013-03-02 06:21:00,
2013-03-02 00:31:00,33.0,29.0,30.14,NNW,344,1.0,6.0,84,0.00,,,0.00,,2013-03-02 06:31:00,
2013-03-02 00:41:00,33.0,29.0,30.14,NNW,344,1.0,6.0,84,0.00,,,0.00,,2013-03-02 06:41:00,
2013-03-02 00:52:00,33.0,29.0,30.13,WNW,293,4.0,8.0,86,0.00,,,0.00,,2013-03-02 06:52:00,
2013-03-02 01:01:00,33.0,29.0,30.13,NW,319,4.0,6.0,86,0.00,,,0.00,,2013-03-02 07:01:00,
2013-03-02 01:11:00,32.0,29.0,30.13,NNE,17,2.0,6.0,88,0.00,,,0.00,,2013-03-02 07:11:00,
2013-03-02 01:21:00,32.0,29.0,30.13,NNE,17,2.0,6.0,88,0.00,,,0.00,,2013-03-02 07:21:00,
2013-03-02 01:32:00,32.0,29.0,30.13,NW,317,3.0,8.0,88,0.00,,,0.00,,2013-03-02 07:32:00,
2013-03-02 01:42:00,32.0,29.0,30.13,NW,317,3.0,8.0,88,0.00,,,0.00,,2013-03-02 07:42:00,
2013-03-02 01:52:00,32.0,29.0,30.13,NNW,333,3.0,6.0,88,0.00,,,0.00,,2013-03-02 07:52:00,
2013-03-02 02:01:00,32.0,29.0,30.13,NW,317,3.0,7.0,89,0.00,,,0.00,,2013-03-02 08:01:00,
2013-03-02 02:11:00,32.0,29.0,30.13,NW,317,3.0,7.0,89,0.00,,,0.00,,2013-03-02 08:11:00,
2013-03-02 02:21:00,32.0,29.0,30.13,NW,304,3.0,7.0,89,0.00,,,0.00,,2013-03-02 08:21:00,
2013-03-02 02:32:00,32.0,29.0,30.13,NW,312,4.0,10.0,88,0.00,,,0.00,,2013-03-02 08:32:00,
2013-03-02 02:42:00,32.0,29.0,30.13,NW,312,4.0,10.0,88,0.00,,,0.00,,2013-03-02 08:42:00,
2013-03-02 02:52:00,32.0,29.0,30.12,North,355,5.0,9.0,88,0.00,,,0.00,,2013-03-02 08:52:00,
2013-03-02 03:01:00,32.0,29.0,30.12,NW,319,4.0,8.0,88,0.00,,,0.00,,2013-03-02 09:01:00,
2013-03-02 03:11:00,32.0,29.0,30.12,North,355,4.0,6.0,88,0.00,,,0.00,,2013-03-02 09:11:00,
2013-03-02 03:21:00,32.0,29.0,30.12,North,355,4.0,6.0,88,0.00,,,0.00,,2013-03-02 09:21:00,
2013-03-02 03:32:00,32.0,29.0,30.12,NNW,329,6.0,9.0,88,0.00,,,0.00,,2013-03-02 09:32:00,
2013-03-02 03:42:00,32.0,29.0,30.12,NNW,329,6.0,9.0,88,0.00,,,0.00,,2013-03-02 09:42:00,
2013-03-02 03:52:00,32.0,29.0,30.12,North,355,4.0,8.0,88,0.00,,,0.00,,2013-03-02 09:52:00,
2013-03-02 04:01:00,32.0,29.0,30.12,NW,311,4.0,9.0,88,0.00,,,0.00,,2013-03-02 10:01:00,
2013-03-02 04:15:00,32.0,29.0,30.12,NW,311,4.0,9.0,88,0.00,,,0.00,,2013-03-02 10:15:00,
2013-03-02 04:22:00,32.0,29.0,30.12,NNE,14,3.0,8.0,88,0.00,,,0.00,,2013-03-02 10:22:00,
2013-03-02 04:31:00,32.0,29.0,30.13,NW,319,4.0,8.0,90,0.00,,,0.00,,2013-03-02 10:31:00,
2013-03-02 04:42:00,32.0,29.0,30.13,NW,319,4.0,8.0,90,0.00,,,0.00,,2013-03-02 10:42:00,
2013-03-02 04:52:00,32.0,29.0,30.13,North,355,3.0,8.0,90,0.00,,,0.00,,2013-03-02 10:52:00,
2013-03-02 05:01:00,32.0,29.0,30.13,NW,317,1.0,6.0,89,0.00,,,0.00,,2013-03-02 11:01:00,
2013-03-02 05:11:00,32.0,29.0,30.13,NW,317,1.0,6.0,89,0.00,,,0.00,,2013-03-02 11:11:00,
2013-03-02 05:21:00,32.0,31.0,30.13,North,360,0.0,5.0,95,0.00,,,0.00,,2013-03-02 11:21:00,
2013-03-02 05:32:00,32.0,29.0,30.14,NW,308,2.0,6.0,89,0.00,,,0.00,,2013-03-02 11:32:00,
2013-03-02 05:42:00,32.0,29.0,30.14,NW,308,2.0,6.0,89,0.00,,,0.00,,2013-03-02 11:42:00,
2013-03-02 05:52:00,32.0,29.0,30.14,NNW,344,5.0,9.0,88,0.00,,,0.00,,2013-03-02 11:52:00,
2013-03-02 06:02:00,32.0,28.0,30.14,NNW,342,2.0,11.0,85,0.00,,,0.00,,2013-03-02 12:02:00,
2013-03-02 06:11:00,32.0,28.0,30.14,NNW,342,2.0,11.0,85,0.00,,,0.00,,2013-03-02 12:11:00,
2013-03-02 06:21:00,32.0,27.0,30.14,ENE,65,3.0,8.0,83,0.00,,,0.00,,2013-03-02 12:21:00,
2013-03-02 06:32:00,32.0,27.0,30.14,NNW,338,3.0,8.0,82,0.00,,,0.00,,2013-03-02 12:32:00,
2013-03-02 06:43:00,32.0,27.0,30.14,NNW,338,3.0,8.0,82,0.00,,,0.00,,2013-03-02 12:43:00,
2013-03-02 06:53:00,32.0,27.0,30.14,NNW,344,3.0,11.0,81,0.00,,,0.00,,2013-03-02 12:53:00,
2013-03-02 07:01:00,32.0,27.0,30.15,NNW,333,4.0,9.0,81,0.00,,,0.00,,2013-03-02 13:01:00,
2013-03-02 07:11:00,32.0,27.0,30.15,NNW,333,4.0,9.0,81,0.00,,,0.00,,2013-03-02 13:11:00,
2013-03-02 07:22:00,32.0,27.0,30.15,NW,304,6.0,10.0,83,0.00,,,0.00,,2013-03-02 13:22:00,
2013-03-02 07:32:00,32.0,27.0,30.16,NNW,343,4.0,12.0,81,0.00,,,0.00,,2013-03-02 13:32:00,
2013-03-02 07:42:00,32.0,27.0,30.16,NNW,343,4.0,12.0,81,0.00,,,0.00,,2013-03-02 13:42:00,
2013-03-02 07:52:00,32.0,27.0,30.17,North,5,3.0,9.0,81,0.00,,,0.00,,2013-03-02 13:52:00,
2013-03-02 08:01:00,32.0,27.0,30.17,NNW,329,5.0,11.0,80,0.00,,,0.00,,2013-03-02 14:01:00,
2013-03-02 08:11:00,32.0,27.0,30.17,NNW,329,5.0,11.0,80,0.00,,,0.00,,2013-03-02 14:11:00,
2013-03-02 08:21:00,32.0,27.0,30.18,NW,320,4.0,8.0,80,0.00,,,0.00,,2013-03-02 14:21:00,
2013-03-02 08:32:00,32.0,27.0,30.19,NNE,27,5.0,10.0,80,0.00,,,0.00,,2013-03-02 14:32:00,
2013-03-02 08:42:00,32.0,27.0,30.19,NNE,27,5.0,10.0,80,0.00,,,0.00,,2013-03-02 14:42:00,
2013-03-02 08:52:00,32.0,27.0,30.19,North,355,3.0,10.0,80,0.00,,,0.00,,2013-03-02 14:52:00,
2013-03-02 09:02:00,32.0,27.0,30.19,NNW,342,4.0,12.0,81,0.00,,,0.00,,2013-03-02 15:02:00,
2013-03-02 09:11:00,32.0,27.0,30.19,NNW,342,4.0,12.0,81,0.00,,,0.00,,2013-03-02 15:11:00,
2013-03-02 09:21:00,32.0,27.0,30.19,NW,313,8.0,12.0,82,0.00,,,0.00,,2013-03-02 15:21:00,
2013-03-02 09:31:00,32.0,27.0,30.20,NNW,340,7.0,11.0,83,0.00,,,0.00,,2013-03-02 15:31:00,
2013-03-02 09:42:00,32.0,27.0,30.20,NNW,340,7.0,11.0,83,0.00,,,0.00,,2013-03-02 15:42:00,
2013-03-02 09:52:00,32.0,28.0,30.20,NW,310,5.0,9.0,85,0.00,,,0.00,,2013-03-02 15:52:00,
2013-03-02 10:01:00,32.0,28.0,30.21,North,360,5.0,12.0,85,0.00,,,0.00,,2013-03-02 16:01:00,
2013-03-02 10:11:00,32.0,28.0,30.21,North,360,5.0,12.0,85,0.00,,,0.00,,2013-03-02 16:11:00,
2013-03-02 10:21:00,32.0,28.0,30.21,West,271,8.0,13.0,84,0.00,,,0.00,,2013-03-02 16:21:00,
2013-03-02 10:31:00,32.0,28.0,30.21,NW,315,5.0,10.0,85,0.00,,,0.00,,2013-03-02 16:31:00,
2013-03-02 10:42:00,32.0,28.0,30.21,NW,315,5.0,10.0,85,0.00,,,0.00,,2013-03-02 16:42:00,
2013-03-02 10:52:00,32.0,28.0,30.21,WNW,301,5.0,13.0,84,0.00,,,0.00,,2013-03-02 16:52:00,
2013-03-02 11:01:00,32.0,28.0,30.21,North,9,4.0,13.0,84,0.00,,,0.00,,2013-03-02 17:01:00,
2013-03-02 11:11:00,32.0,28.0,30.21,North,9,4.0,13.0,84,0.00,,,0.00,,2013-03-02 17:11:00,
2013-03-02 11:21:00,32.0,27.0,30.21,NNE,13,4.0,11.0,83,0.00,,,0.00,,2013-03-02 17:21:00,
2013-03-02 11:32:00,32.0,27.0,30.21,North,355,7.0,14.0,80,0.00,,,0.00,,2013-03-02 17:32:00,
2013-03-02 11:42:00,32.0,27.0,30.21,North,355,7.0,14.0,80,0.00,,,0.00,,2013-03-02 17:42:00,
2013-03-02 11:52:00,33.0,27.0,30.21,North,360,6.0,12.0,78,0.00,,,0.00,,2013-03-02 17:52:00,
2013-03-02 12:01:00,34.0,27.0,30.20,NW,304,7.0,13.0,75,0.00,,,0.00,,2013-03-02 18:01:00,
2013-03-02 12:11:00,34.0,27.0,30.20,NW,304,7.0,13.0,75,0.00,,,0.00,,2013-03-02 18:11:00,
2013-03-02 12:22:00,34.0,26.0,30.20,NNW,348,6.0,9.0,72,0.00,,,0.00,,2013-03-02 18:22:00,
2013-03-02 12:32:00,35.0,26.0,30.19,NW,320,7.0,14.0,70,0.00,,,0.00,,2013-03-02 18:32:00,
2013-03-02 12:42:00,35.0,26.0,30.19,NW,320,7.0,14.0,70,0.00,,,0.00,,2013-03-02 18:42:00,
2013-03-02 12:52:00,34.0,25.0,30.19,North,5,7.0,12.0,69,0.00,,,0.00,,2013-03-02 18:52:00,
2013-03-02 13:01:00,35.0,25.0,30.18,NW,319,2.0,12.0,66,0.00,,,0.00,,2013-03-02 19:01:00,
2013-03-02 13:11:00,35.0,25.0,30.18,NW,319,2.0,12.0,66,0.00,,,0.00,,2013-03-02 19:11:00,
2013-03-02 13:21:00,35.0,24.0,30.18,NNE,19,6.0,12.0,65,0.00,,,0.00,,2013-03-02 19:21:00,
2013-03-02 13:32:00,35.0,24.0,30.18,North,5,6.0,11.0,65,0.00,,,0.00,,2013-03-02 19:32:00,
2013-03-02 13:42:00,35.0,24.0,30.18,North,5,6.0,11.0,65,0.00,,,0.00,,2013-03-02 19:42:00,
2013-03-02 13:52:00,35.0,24.0,30.18,ENE,62,5.0,9.0,65,0.00,,,0.00,,2013-03-02 19:52:00,
2013-03-02 14:01:00,35.0,24.0,30.18,WNW,300,7.0,14.0,65,0.00,,,0.00,,2013-03-02 20:01:00,
2013-03-02 14:11:00,35.0,24.0,30.18,WNW,300,7.0,14.0,65,0.00,,,0.00,,2013-03-02 20:11:00,
2013-03-02 14:22:00,34.0,23.0,30.18,NW,325,6.0,13.0,65,0.00,,,0.00,,2013-03-02 20:22:00,
2013-03-02 14:32:00,34.0,24.0,30.18,North,355,7.0,12.0,66,0.00,,,0.00,,2013-03-02 20:32:00,
2013-03-02 14:42:00,34.0,24.0,30.18,North,355,7.0,12.0,66,0.00,,,0.00,,2013-03-02 20:42:00,
2013-03-02 14:52:00,34.0,24.0,30.18,North,5,5.0,10.0,66,0.00,,,0.00,,2013-03-02 20:52:00,
2013-03-02 15:02:00,34.0,25.0,30.18,North,355,7.0,13.0,68,0.00,,,0.00,,2013-03-02 21:02:00,
2013-03-02 15:11:00,34.0,25.0,30.18,North,355,7.0,13.0,68,0.00,,,0.00,,2013-03-02 21:11:00,
2013-03-02 15:22:00,34.0,25.0,30.18,NW,326,9.0,13.0,69,0.00,,,0.00,,2013-03-02 21:22:00,
2013-03-02 15:32:00,33.0,25.0,30.19,NW,321,7.0,11.0,73,0.00,,,0.00,,2013-03-02 21:32:00,
2013-03-02 15:42:00,33.0,25.0,30.19,NW,321,7.0,11.0,73,0.00,,,0.00,,2013-03-02 21:42:00,
2013-03-02 15:52:00,33.0,24.0,30.18,North,351,7.0,11.0,70,0.00,,,0.00,,2013-03-02 21:52:00,
2013-03-02 16:01:00,34.0,25.0,30.19,NW,311,4.0,10.0,68,0.00,,,0.00,,2013-03-02 22:01:00,
2013-03-02 16:11:00,34.0,25.0,30.19,NW,311,4.0,10.0,68,0.00,,,0.00,,2013-03-02 22:11:00,
2013-03-02 16:21:00,34.0,24.0,30.19,North,5,7.0,11.0,67,0.00,,,0.00,,2013-03-02 22:21:00,
2013-03-02 16:32:00,34.0,25.0,30.19,NE,36,8.0,11.0,69,0.00,,,0.00,,2013-03-02 22:32:00,
2013-03-02 16:42:00,34.0,25.0,30.19,NE,36,8.0,11.0,69,0.00,,,0.00,,2013-03-02 22:42:00,
2013-03-02 16:52:00,33.0,25.0,30.20,North,355,3.0,11.0,73,0.00,,,0.00,,2013-03-02 22:52:00,
2013-03-02 17:01:00,33.0,26.0,30.20,NNE,30,5.0,12.0,74,0.00,,,0.00,,2013-03-02 23:01:00,
2013-03-02 17:11:00,33.0,25.0,30.20,North,355,4.0,8.0,73,0.00,,,0.00,,2013-03-02 23:11:00,
2013-03-02 17:21:00,33.0,25.0,30.20,North,355,4.0,8.0,73,0.00,,,0.00,,2013-03-02 23:21:00,
2013-03-02 17:32:00,33.0,25.0,30.20,NNW,333,0.0,9.0,72,0.00,,,0.00,,2013-03-02 23:32:00,
2013-03-02 17:42:00,33.0,25.0,30.20,NNW,333,0.0,9.0,72,0.00,,,0.00,,2013-03-02 23:42:00,
2013-03-02 17:52:00,33.0,25.0,30.20,NNE,24,5.0,9.0,72,0.00,,,0.00,,2013-03-02 23:52:00,
2013-03-02 18:02:00,33.0,25.0,30.21,NNW,331,1.0,6.0,72,0.00,,,0.00,,2013-03-03 00:02:00,
2013-03-02 18:11:00,33.0,25.0,30.21,NNW,331,1.0,6.0,72,0.00,,,0.00,,2013-03-03 00:11:00,
2013-03-02 18:22:00,33.0,25.0,30.21,North,5,3.0,6.0,72,0.00,,,0.00,,2013-03-03 00:22:00,
2013-03-02 18:32:00,33.0,24.0,30.21,NW,319,2.0,6.0,70,0.00,,,0.00,,2013-03-03 00:32:00,
2013-03-02 18:42:00,33.0,24.0,30.21,NW,319,2.0,6.0,70,0.00,,,0.00,,2013-03-03 00:42:00,
2013-03-02 18:52:00,33.0,24.0,30.22,NNW,332,5.0,10.0,69,0.00,,,0.00,,2013-03-03 00:52:00,
2013-03-02 19:01:00,33.0,23.0,30.22,NNW,338,5.0,10.0,67,0.00,,,0.00,,2013-03-03 01:01:00,
2013-03-02 19:11:00,33.0,23.0,30.22,NNW,338,5.0,10.0,67,0.00,,,0.00,,2013-03-03 01:11:00,
2013-03-02 19:21:00,33.0,24.0,30.23,NNW,329,3.0,8.0,68,0.00,,,0.00,,2013-03-03 01:21:00,
2013-03-02 19:31:00,33.0,24.0,30.23,North,355,2.0,7.0,69,0.00,,,0.00,,2013-03-03 01:31:00,
2013-03-02 19:41:00,33.0,24.0,30.23,North,355,2.0,7.0,69,0.00,,,0.00,,2013-03-03 01:41:00,
2013-03-02 19:52:00,33.0,24.0,30.23,NW,304,2.0,7.0,70,0.00,,,0.00,,2013-03-03 01:52:00,
2013-03-02 20:01:00,33.0,24.0,30.23,North,355,3.0,7.0,70,0.00,,,0.00,,2013-03-03 02:01:00,
2013-03-02 20:11:00,33.0,24.0,30.23,North,355,3.0,7.0,70,0.00,,,0.00,,2013-03-03 02:11:00,
2013-03-02 20:21:00,33.0,24.0,30.22,NNW,348,4.0,5.0,70,0.00,,,0.00,,2013-03-03 02:21:00,
2013-03-02 20:31:00,33.0,24.0,30.22,North,360,1.0,6.0,69,0.00,,,0.00,,2013-03-03 02:31:00,
2013-03-02 20:41:00,33.0,24.0,30.22,North,360,1.0,6.0,69,0.00,,,0.00,,2013-03-03 02:41:00,
2013-03-02 20:52:00,33.0,24.0,30.22,NNW,337,0.0,7.0,68,0.00,,,0.00,,2013-03-03 02:52:00,
2013-03-02 21:01:00,33.0,23.0,30.22,North,355,3.0,4.0,67,0.00,,,0.00,,2013-03-03 03:01:00,
2013-03-02 21:11:00,33.0,23.0,30.22,North,355,3.0,4.0,67,0.00,,,0.00,,2013-03-03 03:11:00,
2013-03-02 21:21:00,33.0,24.0,30.23,NNW,341,2.0,4.0,68,0.00,,,0.00,,2013-03-03 03:21:00,
2013-03-02 21:31:00,33.0,24.0,30.23,NNW,332,0.0,0.0,69,0.00,,,0.00,,2013-03-03 03:31:00,
2013-03-02 21:41:00,33.0,24.0,30.23,NNW,332,0.0,0.0,69,0.00,,,0.00,,2013-03-03 03:41:00,
2013-03-02 21:52:00,32.0,23.0,30.22,NNW,332,0.0,0.0,69,0.00,,,0.00,,2013-03-03 03:52:00,
2013-03-02 22:01:00,32.0,23.0,30.22,NNW,332,0.0,0.0,70,0.00,,,0.00,,2013-03-03 04:01:00,
2013-03-02 22:11:00,32.0,23.0,30.22,NNW,332,0.0,0.0,70,0.00,,,0.00,,2013-03-03 04:11:00,
2013-03-02 22:21:00,32.0,23.0,30.22,WNW,292,0.0,1.0,69,0.00,,,0.00,,2013-03-03 04:21:00,
2013-03-02 22:31:00,32.0,23.0,30.23,WNW,292,0.0,0.0,70,0.00,,,0.00,,2013-03-03 04:31:00,
2013-03-02 22:41:00,32.0,23.0,30.23,WNW,292,0.0,0.0,70,0.00,,,0.00,,2013-03-03 04:41:00,
2013-03-02 22:52:00,32.0,23.0,30.23,WNW,292,0.0,0.0,69,0.00,,,0.00,,2013-03-03 04:52:00,
2013-03-02 23:02:00,32.0,24.0,30.22,WNW,296,0.0,0.0,71,0.00,,,0.00,,2013-03-03 05:02:00,
2013-03-02 23:11:00,32.0,24.0,30.22,WNW,296,0.0,0.0,71,0.00,,,0.00,,2013-03-03 05:11:00,
2013-03-02 23:22:00,32.0,24.0,30.22,WNW,296,0.0,0.0,72,0.00,,,0.00,,2013-03-03 05:22:00,
2013-03-02 23:32:00,32.0,24.0,30.22,WNW,296,0.0,0.0,72,0.00,,,0.00,,2013-03-03 05:32:00,
2013-03-02 23:42:00,32.0,24.0,30.22,WNW,296,0.0,0.0,72,0.00,,,0.00,,2013-03-03 05:42:00,
2013-03-02 23:52:00,31.0,24.0,30.22,WNW,296,0.0,0.0,74,0.00,,,0.00,,2013-03-03 05:52:00,